ECMWFFLT1_sfc_temp_030.txt.gz
Temp
59 59 58 58 58 58 58 58 57 58 58 59 59 59 60 61 60 59 59 60 61 61 61 59 58 58 60 60 60 58 58 59 59 59 58 59 57 56 59 59 59 60 59 59 56 54 51 52 56 56 58 61 62 62 63 63 64 65 64 64 65 65 64
59 60 59 60 58 58 57 57 57 57 57 57 58 58 58 60 61 59 59 59 59 59 61 60 59 59 58 57 57 57 56 57 59 58 58 56 57 57 58 57 58 58 58 57 58 56 54 51 53 54 55 58 58 60 62 62 63 63 64 65 66 67 65
60 59 58 58 57 57 57 55 56 56 56 56 56 56 57 58 58 59 58 58 57 59 59 58 58 58 57 57 56 57 57 56 56 57 56 55 56 56 57 57 56 58 57 56 55 55 56 55 54 54 54 55 55 56 57 61 62 63 63 64 64 66 67
59 59 58 57 56 56 56 55 56 55 55 56 56 55 55 56 56 58 57 56 57 58 58 57 57 57 56 56 57 57 57 56 55 55 56 55 56 57 57 56 55 56 55 54 54 55 54 52 51 51 52 55 55 54 58 62 62 64 64 63 64 64 65
60 60 59 58 57 57 56 55 55 55 54 55 55 55 55 55 57 55 56 56 56 55 56 56 56 57 56 56 55 56 55 55 55 56 54 54 54 54 54 54 54 56 55 55 55 54 54 53 53 51 52 53 52 54 59 59 59 65 65 64 65 65 65
60 60 59 58 58 57 56 56 55 54 54 56 55 55 56 55 56 57 57 57 56 56 55 56 55 55 56 55 55 54 54 54 53 54 53 51 53 54 52 53 54 55 54 54 54 54 52 52 51 49 51 53 52 50 52 56 57 60 64 64 65 65 66
60 59 58 59 58 58 58 57 57 56 55 56 55 55 56 55 55 56 56 55 54 55 56 55 55 55 55 56 55 55 54 52 53 53 52 51 51 51 51 52 53 53 52 53 52 53 52 51 48 49 50 48 49 51 52 55 58 58 60 63 65 66 65
60 59 58 59 58 58 58 58 57 56 57 56 56 58 55 55 54 54 54 55 55 56 56 56 57 55 55 56 55 53 53 52 53 53 52 54 55 53 52 52 53 52 52 52 52 53 52 51 51 50 48 49 47 44 48 49 52 55 55 58 63 65 64
60 60 59 59 58 59 59 59 57 57 58 57 57 57 55 57 55 55 55 54 54 55 55 56 56 56 55 54 53 53 53 55 54 52 51 52 52 51 51 51 53 51 52 53 53 52 52 52 52 49 49 47 46 45 44 45 47 50 55 57 57 61 63
60 60 61 60 59 59 59 58 58 58 58 58 58 57 56 55 56 56 55 54 54 54 53 54 54 54 54 56 55 52 53 52 54 51 51 53 50 50 50 50 51 51 50 51 51 53 52 51 52 50 50 50 47 44 44 44 44 47 51 56 56 57 62
62 62 62 62 61 59 59 59 58 57 58 59 59 59 57 57 56 59 55 55 53 53 53 53 54 53 53 53 52 53 53 52 52 51 52 52 51 51 51 50 50 50 50 50 50 50 50 50 50 51 50 49 48 48 45 45 44 45 48 50 54 56 59
62 62 63 63 61 60 60 59 59 60 59 58 59 58 57 57 57 56 56 55 54 55 53 53 53 53 53 52 53 52 52 51 52 51 52 53 52 52 50 50 50 51 50 50 50 51 50 50 51 49 50 50 49 47 45 45 45 45 50 52 49 54 55
63 63 63 62 61 61 61 60 60 58 59 59 59 59 59 58 58 57 56 56 56 54 55 54 54 53 53 54 54 54 51 51 52 51 52 52 54 51 50 50 50 51 50 50 51 51 51 51 51 52 50 50 49 48 45 46 47 48 47 52 51 52 55
60 62 63 62 62 62 61 60 60 61 60 59 59 59 59 59 58 58 58 57 57 56 55 54 53 54 54 53 53 54 51 52 53 51 51 53 53 50 50 50 51 52 49 50 49 51 52 51 51 51 51 50 50 50 49 48 48 48 48 46 49 53 55
62 62 63 62 61 60 59 60 61 60 60 60 59 60 59 59 59 58 58 58 58 57 57 55 54 54 55 53 52 55 54 53 53 52 50 51 51 52 49 50 52 52 50 50 49 53 51 51 52 52 51 52 49 51 49 50 47 46 48 48 50 52 54
58 57 58 59 59 59 59 58 58 59 59 59 59 60 60 59 59 59 58 58 58 57 58 57 55 55 55 55 54 54 54 53 53 52 51 53 53 51 50 50 50 50 51 50 49 48 49 50 51 51 49 50 49 48 49 49 48 46 45 47 45 51 51
57 57 57 56 57 57 57 56 58 58 59 58 59 58 57 59 58 58 58 57 57 57 57 57 56 56 56 56 55 55 53 52 52 53 53 53 53 52 52 50 51 50 50 50 49 48 49 49 49 49 48 48 48 48 48 48 48 47 44 46 44 50 50
56 57 58 57 59 58 58 57 57 57 56 57 58 58 57 57 56 57 58 58 57 57 58 58 57 57 57 56 56 56 55 55 54 53 54 53 55 53 52 53 51 50 49 50 49 49 48 48 49 49 48 48 48 47 48 47 46 46 45 45 45 43 47
55 56 57 57 57 57 57 58 57 55 55 56 56 56 57 57 58 57 57 58 58 58 58 58 58 58 58 56 56 56 55 55 55 54 54 53 54 53 53 52 51 51 51 51 49 47 47 47 48 48 47 46 46 46 45 46 46 45 45 43 44 44 44
57 57 57 58 57 56 56 56 57 57 55 55 55 55 55 56 56 57 58 58 59 58 58 57 57 58 58 58 57 56 55 54 55 54 54 55 54 53 53 53 51 51 51 51 50 49 48 49 49 49 48 46 44 43 43 43 44 44 42 43 41 41 43
57 57 56 57 57 56 56 56 56 55 55 54 55 55 56 56 55 55 56 56 57 56 57 58 58 58 58 58 57 56 56 55 55 54 54 54 54 53 53 53 52 52 52 51 51 49 50 49 50 49 48 48 45 42 41 41 41 40 41 41 41 40 40
56 56 57 57 55 55 54 54 54 53 54 54 55 54 54 54 54 54 54 54 55 55 56 56 57 57 57 57 57 56 56 56 56 55 54 53 53 53 53 53 53 51 54 55 53 51 51 51 50 50 47 47 45 45 41 39 40 40 40 40 40 40 39
53 53 53 53 54 54 54 54 54 53 54 54 53 53 53 53 53 53 54 53 53 53 54 56 56 53 53 57 56 58 57 57 57 56 55 54 52 53 53 53 54 57 55 53 50 47 46 47 49 50 48 47 48 45 43 42 40 40 41 40 39 38 39
51 52 52 52 53 54 54 54 53 53 53 53 53 52 53 53 52 53 53 53 53 54 55 56 51 46 47 50 57 56 56 56 56 56 56 55 54 54 53 53 53 55 53 51 50 45 45 44 44 45 45 47 47 46 43 43 40 41 42 40 39 38 37
52 52 50 50 50 51 51 51 52 51 52 52 52 52 52 53 53 52 53 51 53 54 54 53 48 46 45 45 49 56 55 55 55 56 56 56 56 55 54 52 52 53 53 53 52 49 46 43 43 43 43 43 43 44 45 45 43 41 39 40 39 39 37
49 50 50 50 49 48 47 48 50 50 50 50 51 50 52 51 52 52 51 52 52 53 53 50 47 46 45 44 44 50 54 54 55 55 55 56 55 54 53 52 52 52 54 54 53 51 50 46 43 42 43 43 42 41 39 39 42 44 41 39 39 38 38
50 49 49 48 47 47 48 50 49 48 48 48 49 48 47 48 48 49 49 51 52 53 52 50 46 45 45 44 43 45 51 52 53 53 54 54 54 54 54 53 52 51 52 53 52 51 50 47 46 46 46 44 42 43 42 40 39 39 41 42 40 39 39
49 49 49 47 46 47 48 48 50 49 49 49 50 49 48 48 47 47 47 48 49 52 53 49 45 44 43 43 43 43 49 52 52 52 53 53 54 54 53 53 52 52 51 50 51 50 48 48 47 45 44 43 41 39 39 40 39 38 38 38 38 38 38
48 48 48 47 49 50 48 47 51 47 48 44 43 44 46 47 47 46 47 47 47 49 49 42 45 44 43 43 42 46 48 48 48 48 49 49 49 49 49 50 49 49 48 49 47 45 46 45 44 44 43 40 38 38 38 42 41 41 40 38 38 39 38
47 47 47 49 50 48 49 48 46 45 51 44 44 44 45 44 44 44 45 46 46 45 42 39 43 43 41 40 43 47 45 46 45 45 45 46 47 50 50 49 49 49 47 43 40 40 42 45 46 44 42 39 39 40 40 42 41 40 40 40 40 40 39
47 47 45 48 47 45 43 43 45 44 50 49 47 44 43 44 40 40 40 42 44 45 39 40 41 40 40 42 46 46 44 45 44 45 45 47 47 47 48 53 49 47 44 42 38 39 40 43 41 40 40 40 40 39 40 39 39 38 40 40 39 39 39
46 45 46 45 44 45 45 46 45 44 45 45 46 42 41 39 38 40 39 39 46 39 37 40 41 40 41 43 45 45 46 45 45 45 46 44 43 42 42 45 46 44 44 41 38 39 39 41 39 39 40 40 39 38 37 34 34 34 34 35 35 36 36
46 45 45 43 43 45 43 45 46 47 45 42 40 38 39 40 38 37 37 37 39 37 37 38 39 41 42 43 44 47 46 46 45 44 44 45 43 41 41 42 41 38 38 38 38 38 39 40 39 38 38 37 37 35 33 32 34 34 32 34 33 33 34
48 45 44 46 45 45 44 45 45 46 45 40 39 39 38 37 37 36 37 36 36 37 39 37 39 41 42 42 43 44 44 45 44 44 43 43 42 41 39 39 39 39 38 38 38 37 38 38 39 38 37 36 36 35 36 33 33 39 33 32 33 34 34
45 48 46 46 47 46 45 44 44 44 41 38 39 38 36 36 36 35 36 36 35 35 40 42 37 40 41 41 42 43 44 43 44 44 42 41 41 41 41 40 38 38 38 38 37 38 38 37 37 40 38 37 37 37 34 34 33 33 33 33 31 31 32
47 48 48 46 45 45 44 44 43 42 40 39 39 37 36 35 35 35 35 35 34 35 35 39 41 39 40 41 41 41 41 41 41 44 43 41 41 41 40 39 40 39 37 37 37 37 38 37 38 37 37 36 36 36 36 33 32 32 31 31 32 31 31
44 44 45 44 44 44 43 42 43 43 40 40 39 37 35 36 35 35 35 35 36 35 34 35 39 40 40 39 39 39 39 40 41 42 43 40 41 41 40 40 40 37 37 37 37 37 37 37 36 36 36 36 36 36 34 33 32 32 31 32 30 30 31

ECMWFFLT1_sfc_temp_033.txt.gz
Temp
56 56 55 55 54 55 55 55 55 55 55 56 57 56 57 58 58 57 57 57 58 58 58 56 55 56 58 59 58 57 57 57 58 58 58 58 56 55 57 56 58 58 58 57 54 55 51 52 54 56 58 60 61 62 62 62 62 62 62 63 64 64 63
56 56 55 55 55 54 55 54 55 54 55 54 54 56 55 58 59 57 57 57 57 57 59 57 56 56 55 55 55 55 55 56 57 56 56 55 55 53 54 55 56 56 56 56 56 56 53 50 52 53 55 58 58 59 59 59 60 61 62 63 64 65 64
56 54 54 54 53 53 54 53 53 54 54 54 54 53 55 55 55 56 56 56 56 57 57 55 54 54 54 54 53 54 55 55 54 55 54 53 53 54 55 56 54 54 54 55 54 53 55 54 52 54 54 54 54 59 59 58 61 61 62 62 63 64 65
56 55 55 53 53 54 54 53 53 53 53 53 54 53 53 54 54 56 55 54 56 57 55 54 54 53 53 53 53 54 54 54 54 54 54 53 53 53 54 55 54 53 53 51 53 53 52 51 52 52 53 56 56 54 58 58 61 63 63 62 62 63 63
57 57 55 54 53 53 52 52 52 52 53 53 53 53 53 53 54 53 53 53 54 53 53 53 53 53 53 53 53 53 52 52 52 54 52 52 52 52 52 53 54 55 55 54 54 53 54 53 51 52 53 53 54 54 56 53 58 60 61 62 62 62 62
58 56 56 55 53 53 52 51 51 52 52 53 53 54 52 52 54 54 54 54 54 55 53 53 52 53 54 53 53 52 52 51 50 51 50 49 50 51 50 50 50 52 52 52 53 52 51 50 51 48 52 52 53 53 53 52 53 55 60 61 62 61 62
57 57 56 58 56 54 54 52 52 52 52 52 52 53 54 53 54 55 54 53 53 52 53 53 53 53 53 53 53 52 52 50 51 51 50 50 50 49 49 51 51 50 50 50 49 50 48 48 46 47 47 47 46 49 49 51 53 55 56 58 61 62 61
59 59 58 58 56 54 53 52 52 51 52 52 52 53 53 53 52 52 52 52 52 53 53 54 55 53 53 54 53 52 52 51 51 51 50 51 52 50 50 50 51 50 48 49 50 50 50 50 50 48 43 48 48 45 46 47 48 53 52 53 59 61 60
60 60 59 58 56 54 54 54 53 52 53 52 51 53 52 53 52 52 53 51 51 52 52 52 52 53 52 52 51 53 53 53 52 51 49 50 49 49 49 48 51 48 48 49 50 49 50 49 49 46 47 42 44 48 44 47 46 50 51 54 53 58 60
59 59 60 59 58 57 55 54 54 53 52 52 53 54 52 53 52 52 52 51 51 52 52 52 52 51 51 52 52 51 51 50 52 50 49 50 47 48 48 49 49 49 48 48 49 49 49 48 48 47 47 50 44 43 42 43 46 46 51 51 54 55 58
61 60 60 60 59 57 55 54 54 54 54 54 54 55 53 53 53 56 51 52 51 51 51 51 51 51 51 51 50 50 50 50 51 49 50 50 49 49 49 48 48 49 48 49 48 48 48 48 48 49 47 46 48 49 43 44 45 43 49 49 52 53 55
61 61 60 60 59 59 57 55 54 55 54 54 55 54 52 53 52 53 52 52 51 51 51 51 51 50 51 50 50 50 49 50 50 50 49 50 49 51 49 49 48 49 48 49 49 49 49 50 48 49 49 49 48 47 45 43 44 45 48 50 50 50 51
61 61 61 61 59 59 58 57 56 54 55 54 54 54 53 53 53 52 52 52 52 51 51 51 50 50 50 52 52 52 49 49 50 49 49 49 51 49 48 48 48 48 48 49 50 49 49 50 49 49 49 49 48 46 45 44 45 47 45 49 49 50 51
58 60 60 60 60 60 59 58 57 57 55 54 55 55 54 53 53 53 53 53 52 52 51 51 50 50 50 50 50 50 48 50 51 49 49 49 49 48 48 48 48 49 48 50 48 49 50 49 50 49 49 48 48 48 48 45 45 45 46 45 47 50 51
59 60 60 58 59 59 58 59 58 56 56 56 57 57 57 55 54 54 53 53 53 53 52 52 51 51 51 50 50 51 50 49 49 48 49 49 49 50 47 48 50 49 47 48 47 50 49 49 50 50 48 48 47 48 46 48 44 44 45 45 46 48 49
59 60 59 57 57 57 57 56 57 58 57 56 56 57 58 57 56 54 54 54 53 53 53 52 52 51 51 51 51 50 50 49 49 49 49 49 48 47 47 48 48 49 49 48 46 46 48 49 49 48 47 47 47 46 47 46 46 44 43 45 43 48 47
56 57 56 56 57 56 55 55 56 56 58 58 56 55 55 56 56 55 55 54 54 54 54 53 53 52 52 51 51 52 50 50 50 50 51 50 49 48 47 47 48 47 48 48 46 46 46 46 47 47 47 45 46 45 44 44 45 44 42 43 42 45 46
55 55 56 57 56 56 55 55 55 56 56 57 56 55 56 56 55 54 55 55 55 54 55 54 53 52 52 51 52 53 52 51 50 51 51 51 53 50 49 50 49 48 47 47 46 46 46 46 46 46 45 45 45 45 45 44 43 43 42 41 42 40 43
55 55 55 55 55 55 55 55 54 55 56 57 56 56 56 56 56 56 56 56 56 56 55 54 55 55 54 52 52 52 52 52 51 51 51 51 51 51 51 51 51 50 49 50 47 46 45 45 45 46 45 45 44 43 43 42 42 42 42 40 41 41 39
55 56 56 56 55 54 54 53 53 54 54 54 53 54 55 56 56 56 57 57 56 56 55 54 54 53 53 52 52 52 52 51 51 51 51 52 52 51 52 51 51 51 51 51 50 50 48 46 47 46 47 46 46 47 45 43 42 42 41 41 38 39 40
55 56 56 55 55 55 54 54 54 54 54 54 53 54 54 56 56 55 56 57 57 56 54 54 53 53 53 53 53 52 53 52 52 51 51 51 51 52 52 52 52 52 52 51 52 52 52 49 46 46 45 46 45 44 43 43 42 41 41 40 38 38 37
54 54 55 54 54 56 55 54 54 54 54 54 54 55 55 55 55 55 55 54 54 54 55 55 56 55 54 54 53 53 54 54 53 53 53 52 51 51 52 52 52 52 54 55 53 52 52 51 49 48 47 46 45 43 43 44 42 41 38 39 39 38 38
54 54 54 54 54 54 54 54 54 54 54 54 54 54 55 54 54 54 54 53 52 51 52 54 55 52 52 56 54 55 54 54 54 54 53 52 52 52 53 54 55 56 54 54 50 47 46 47 50 51 50 47 47 44 43 43 42 42 42 41 39 37 39
52 53 53 53 53 54 54 54 53 54 54 54 54 54 53 54 53 53 53 52 51 51 53 54 50 47 46 48 54 53 55 55 55 54 54 54 52 52 53 54 55 55 53 52 50 45 45 45 45 46 46 47 48 46 43 41 40 41 43 40 37 37 37
49 50 50 52 52 52 52 53 53 53 53 53 52 52 52 51 51 49 49 49 49 52 52 51 47 46 44 43 47 54 53 54 54 54 54 54 54 53 53 53 53 54 54 53 52 49 47 45 44 44 43 43 43 44 44 42 40 38 37 37 37 37 36
47 47 46 46 46 46 48 49 49 49 49 47 47 48 49 47 47 47 48 49 49 50 51 49 46 45 44 43 43 47 52 51 52 52 53 54 54 54 53 53 52 52 53 54 53 52 51 48 44 42 42 43 42 42 41 42 43 41 38 39 38 36 35
46 46 45 45 44 45 46 47 45 44 46 45 44 45 44 45 44 45 46 46 46 47 49 48 45 44 43 42 41 43 50 50 50 50 51 52 53 52 52 52 51 50 49 51 52 51 51 49 47 46 45 43 41 40 40 40 38 40 41 40 38 37 36
46 46 44 43 43 44 44 44 45 45 43 44 45 47 48 47 45 44 43 43 44 47 49 44 40 41 41 41 41 40 47 47 47 48 49 49 50 50 49 51 50 50 50 50 51 51 51 49 47 45 44 41 39 37 38 38 37 36 38 37 36 36 36
46 45 45 44 46 46 44 45 47 44 41 40 41 41 41 41 41 41 42 42 43 43 45 40 39 41 41 40 40 44 44 45 45 46 47 46 47 47 47 49 48 48 50 51 48 45 47 48 47 45 42 38 37 37 38 40 41 41 40 38 36 35 35
45 44 44 45 46 47 50 49 46 41 44 39 40 40 40 40 38 38 40 40 40 42 43 40 40 40 40 39 42 43 42 43 43 43 41 41 42 45 46 46 47 48 48 47 43 41 42 45 46 44 42 39 38 38 38 39 39 39 39 39 39 40 39
44 45 43 45 45 43 42 42 43 43 51 46 44 43 41 38 37 38 38 39 39 40 39 39 41 39 40 39 44 43 42 42 41 41 41 40 41 42 46 51 48 46 45 43 39 39 40 44 44 42 42 40 37 37 37 36 37 36 39 39 39 38 38
44 44 44 44 43 44 43 44 43 41 40 40 40 38 38 37 36 36 35 36 44 37 35 38 40 39 40 40 43 42 43 42 41 40 40 39 39 39 40 43 45 44 43 40 38 39 40 43 43 42 40 39 37 37 33 34 34 33 32 33 32 34 35
45 45 46 44 42 44 42 42 42 41 38 38 38 36 38 36 36 34 34 34 36 35 36 35 38 40 41 41 43 44 44 43 41 39 39 41 40 39 40 40 40 38 39 39 39 38 39 40 40 37 35 34 36 35 32 32 34 33 32 33 31 31 32
48 46 46 46 44 44 43 44 41 41 39 36 37 36 35 35 35 33 33 33 33 34 38 35 37 39 41 42 42 43 41 43 41 40 39 39 38 38 38 39 40 40 39 39 39 38 38 38 38 36 34 34 33 34 34 32 34 39 33 33 33 32 33
47 48 45 45 47 46 43 43 42 41 37 37 37 35 34 34 34 33 32 33 34 32 37 42 36 39 39 41 41 42 42 40 42 41 38 37 37 37 38 38 39 39 38 38 37 38 38 38 38 38 36 37 36 36 34 34 32 33 31 31 30 30 31
48 47 46 44 43 44 41 41 39 38 38 36 36 35 34 33 33 33 33 33 32 33 32 37 40 38 39 39 40 40 40 40 41 41 40 37 36 36 36 37 38 39 37 37 37 37 37 37 38 38 37 36 36 36 36 34 33 32 30 30 30 30 30
44 44 44 42 42 42 41 40 38 39 37 38 36 35 33 33 33 34 34 35 34 33 32 33 38 39 38 39 39 39 39 39 40 40 41 39 39 38 38 37 39 36 37 37 37 37 37 37 36 36 36 36 36 36 35 33 32 31 31 30 30 29 30

ECMWFFLT1_sfc_temp_036.txt.gz
Temp
57 56 54 54 53 54 54 54 54 54 55 55 55 56 57 58 57 57 57 57 57 58 60 58 59 59 59 60 59 58 59 60 60 59 59 59 58 57 58 58 59 59 59 58 57 57 53 53 55 58 60 60 59 59 60 60 62 63 64 64 64 64 63
55 55 54 55 54 54 54 53 54 54 54 54 54 55 56 58 59 57 56 57 57 58 58 56 56 57 58 57 57 57 58 58 59 59 58 57 58 56 56 57 58 57 57 57 58 57 54 52 52 54 57 60 59 58 59 60 62 62 61 60 63 63 62
56 54 53 53 52 52 53 52 52 53 53 54 54 54 55 55 56 57 56 56 56 57 57 55 55 55 54 54 55 56 56 56 56 57 57 56 57 56 57 57 56 56 56 57 55 56 56 57 54 54 54 55 54 58 59 59 61 62 63 62 62 64 63
54 55 54 52 53 53 53 52 52 52 52 52 52 54 53 54 55 57 55 55 57 58 56 55 54 54 53 54 54 55 54 54 54 54 54 54 55 55 56 57 56 56 55 54 55 55 56 55 55 55 56 58 58 56 58 59 61 63 64 62 62 62 62
56 56 55 54 52 52 51 52 51 52 52 52 52 52 53 54 55 53 55 54 55 54 54 54 54 54 54 54 54 54 53 53 54 54 53 53 54 54 54 55 55 56 55 55 55 55 57 55 55 54 54 55 58 57 58 56 61 62 62 62 63 62 62
56 55 55 54 52 52 51 51 51 52 52 54 52 54 54 53 54 54 54 54 54 54 53 54 53 54 54 54 54 53 52 53 52 53 53 51 53 54 52 53 54 54 54 54 55 53 52 54 54 53 53 54 56 56 57 56 57 61 62 62 63 62 62
57 56 55 55 52 52 52 52 52 52 52 51 52 52 51 52 53 53 53 52 53 53 53 53 53 54 54 54 54 53 52 52 52 52 52 51 51 52 53 54 53 53 52 52 53 53 52 52 52 54 52 50 50 54 54 55 57 59 61 62 63 63 62
58 57 56 56 54 53 52 52 50 49 52 51 51 53 52 51 51 52 54 51 52 53 53 54 54 53 54 54 54 52 52 52 52 53 52 53 53 52 52 53 53 52 52 52 53 53 54 54 53 50 50 53 51 50 52 53 54 55 55 59 61 61 61
59 58 57 57 55 55 54 54 52 51 51 51 51 51 51 52 51 51 51 51 51 52 52 52 52 53 52 53 52 53 53 54 52 52 51 52 51 51 51 52 54 52 52 52 53 53 53 52 52 50 49 51 52 51 50 51 53 54 56 58 60 60 60
58 58 57 56 56 55 55 53 52 51 51 51 52 52 51 51 51 51 51 51 52 52 52 52 51 51 52 53 52 52 52 52 53 51 51 51 50 51 51 52 52 51 51 52 53 53 52 51 51 51 53 52 49 52 48 49 50 51 56 55 56 58 59
59 58 58 57 56 56 54 53 52 53 52 52 53 55 52 52 51 54 50 52 51 52 52 52 51 51 52 51 51 51 51 52 52 51 52 51 51 51 51 51 52 51 51 51 51 51 52 52 52 52 52 51 53 53 48 48 50 50 54 54 55 55 57
58 60 59 58 57 58 57 54 54 52 52 53 54 53 52 52 52 51 51 51 51 52 51 51 51 51 51 52 52 51 51 51 52 51 51 52 52 52 52 51 51 51 51 51 51 51 51 52 52 52 52 52 51 53 52 49 49 52 52 52 53 55 54
60 60 60 58 57 57 57 55 54 53 52 54 51 52 52 52 52 52 51 52 51 50 51 50 51 50 50 51 51 51 50 51 52 51 51 51 52 51 52 52 52 52 51 52 52 51 51 51 52 52 52 52 50 50 51 49 50 51 51 52 52 54 54
59 58 58 58 57 57 56 56 55 54 53 53 53 53 53 53 52 52 52 53 53 52 52 52 50 51 51 51 50 50 50 51 52 51 52 51 51 51 52 52 51 51 51 53 51 51 52 51 51 51 51 52 51 51 52 50 50 50 52 50 51 52 53
59 58 58 57 56 56 57 57 56 55 55 54 54 55 54 54 54 53 53 53 53 53 53 53 52 52 52 52 52 52 50 51 51 51 51 51 51 51 51 52 51 50 50 51 51 53 52 52 52 52 51 52 52 51 50 50 49 49 50 50 51 52 52
56 56 56 55 56 55 55 55 56 55 55 54 55 55 55 54 54 54 54 54 53 53 53 53 52 52 52 52 52 52 51 51 52 52 52 51 51 50 51 52 52 51 51 51 50 50 50 51 52 52 50 50 50 50 50 51 49 47 49 50 48 50 50
55 55 55 55 56 54 53 54 55 55 56 56 56 54 54 54 54 54 54 54 53 53 54 53 53 53 53 53 53 53 52 51 51 52 52 52 50 51 51 51 52 51 51 51 50 50 50 50 50 51 50 49 50 49 49 50 50 49 48 48 47 49 50
54 54 55 54 54 54 54 55 56 56 55 55 56 55 55 54 54 54 55 55 55 55 54 55 55 55 54 53 53 54 53 53 52 52 52 52 53 52 51 53 53 51 51 51 49 50 49 49 50 50 50 49 49 48 48 48 48 48 47 48 47 46 47
54 55 55 54 55 55 55 56 55 55 57 57 57 56 56 55 56 55 55 56 56 56 55 55 55 55 55 54 53 53 54 54 54 53 53 52 53 53 53 53 52 52 51 52 51 49 49 49 48 49 49 49 49 47 47 46 46 46 47 47 47 48 46
54 55 55 55 54 55 55 55 55 55 55 57 55 55 55 55 55 55 55 56 56 56 56 56 54 54 54 54 54 53 53 53 54 53 53 53 53 53 54 54 53 53 53 53 52 50 49 48 49 49 49 48 48 47 46 46 46 46 47 46 45 45 47
55 55 55 55 55 55 54 54 55 54 54 53 53 54 55 56 56 55 55 56 56 56 56 55 55 54 54 54 54 54 53 53 53 53 53 53 53 53 53 54 54 54 54 53 53 52 52 51 51 50 49 49 47 47 46 45 45 46 46 45 46 46 45
55 54 54 54 53 53 54 54 54 54 54 54 54 54 54 54 54 54 54 54 54 55 55 55 56 56 55 56 54 54 54 54 54 54 53 53 53 53 53 54 54 55 54 55 52 52 52 51 51 50 49 49 48 47 46 46 45 45 45 46 45 44 45
53 53 53 53 53 53 53 52 53 53 53 54 53 53 54 53 54 54 54 54 53 53 54 55 54 51 51 56 55 55 54 54 54 54 54 53 52 52 53 53 54 56 54 53 51 47 47 47 50 52 51 50 49 47 47 47 46 46 46 46 46 45 47
51 52 52 52 51 53 53 53 52 52 52 53 52 52 52 52 53 53 53 54 53 53 53 54 49 46 45 45 52 54 54 54 54 54 54 53 53 53 53 55 55 55 54 52 52 45 45 45 46 46 46 48 49 49 47 46 46 45 47 46 44 44 45
51 51 51 52 52 53 52 51 52 52 51 51 52 52 51 52 52 51 52 52 52 53 53 51 47 45 44 43 45 53 54 54 54 53 53 53 54 54 54 54 55 55 55 55 54 50 47 44 44 43 43 43 43 44 45 48 47 45 44 45 43 44 43
49 49 50 50 50 50 51 51 50 50 50 51 50 50 51 50 50 50 50 51 51 51 52 47 44 42 41 40 40 45 52 53 53 54 53 54 54 55 54 53 53 53 54 55 54 52 52 49 44 43 43 42 41 41 39 40 42 48 46 45 45 43 43
47 47 46 46 47 49 49 49 49 48 47 46 48 48 48 48 48 48 48 49 48 47 48 44 39 40 40 39 39 41 50 51 52 52 53 53 53 53 53 53 53 52 52 54 53 52 52 51 49 48 47 47 46 43 40 39 38 40 43 46 45 45 43
45 44 44 44 45 46 46 45 45 44 45 46 47 47 46 46 45 45 44 44 45 46 46 39 37 37 39 39 39 40 48 48 50 51 50 50 50 51 51 51 52 52 51 51 51 51 51 50 49 47 46 44 44 43 43 43 43 43 43 42 44 43 43
45 44 44 45 46 46 44 46 46 44 43 42 42 43 43 43 43 43 43 43 43 44 45 40 39 38 37 38 39 44 46 47 48 48 47 46 47 48 49 50 50 50 50 50 48 44 48 50 49 47 44 42 42 42 42 42 41 42 43 43 44 44 43
46 46 45 48 49 48 47 45 43 43 44 42 44 43 42 40 39 41 41 41 41 42 42 41 39 38 37 37 41 46 46 46 45 43 42 42 43 45 47 49 49 49 48 49 45 42 42 46 49 47 44 42 41 41 40 41 40 39 39 39 39 39 38
47 46 44 48 49 47 45 45 44 45 45 43 43 43 40 38 38 39 40 41 43 42 41 40 40 38 40 38 43 46 44 43 41 42 41 41 42 43 46 50 48 46 45 44 39 40 41 47 47 46 45 43 42 41 41 40 40 39 38 38 38 38 38
45 46 45 45 45 45 44 45 44 42 43 44 44 42 41 39 38 37 38 41 45 39 38 40 40 38 39 39 43 43 44 44 43 41 41 41 41 41 42 44 45 44 44 42 38 40 41 45 46 45 45 44 43 42 41 39 40 40 39 40 38 39 39
46 45 45 44 43 44 42 42 41 42 40 41 41 39 39 38 38 37 37 37 38 38 39 39 40 38 40 40 41 44 44 45 43 41 41 42 42 41 42 42 42 38 38 38 38 38 39 41 45 43 43 42 42 42 40 38 39 38 38 38 37 37 38
50 47 46 47 45 43 44 44 42 42 41 40 40 39 39 38 37 37 36 36 36 38 40 38 40 39 41 41 41 42 44 44 42 42 41 40 41 41 41 41 42 40 38 38 38 38 38 38 39 42 43 43 42 41 37 39 39 39 38 38 38 38 38
47 48 47 46 46 46 43 43 45 43 41 41 41 39 37 38 37 37 35 35 37 35 38 42 39 40 40 41 41 41 43 43 43 42 40 39 39 40 40 41 41 39 38 38 38 38 38 38 39 42 39 37 36 36 40 39 38 38 38 37 37 37 37
45 46 45 46 48 49 44 44 43 43 42 41 41 40 38 37 38 37 37 36 35 35 35 39 40 40 38 39 39 39 39 41 40 43 42 40 40 40 41 40 41 39 37 37 37 37 37 38 39 39 36 36 36 35 37 38 38 37 36 36 36 36 36
42 42 43 44 43 45 43 43 43 43 42 42 41 40 37 36 36 37 37 37 36 36 36 36 38 39 39 38 38 39 39 39 39 41 42 41 41 42 41 41 40 37 37 37 37 37 36 37 38 36 36 35 35 36 38 37 36 36 36 36 36 36 36

ECMWFFLT1_sfc_temp_042.txt.gz
Temp
75 73 74 75 76 76 76 76 77 77 78 78 77 78 78 78 77 76 76 76 76 77 77 76 75 75 75 75 74 74 74 74 73 71 70 72 70 69 71 70 70 70 73 70 69 67 63 61 63 71 72 71 71 70 70 70 72 72 72 74 74 67 66
75 74 75 76 75 75 74 75 76 77 76 76 78 77 77 78 77 76 76 76 75 76 78 77 76 76 74 73 73 72 72 72 73 72 71 71 72 71 68 67 70 71 71 72 72 71 64 60 64 67 68 71 71 71 71 71 71 69 70 73 74 73 72
74 74 76 74 74 74 73 73 75 75 76 75 75 77 76 77 76 77 77 75 75 76 76 77 76 74 73 73 72 72 72 72 72 71 69 69 72 73 72 67 69 71 72 72 72 72 71 68 63 66 70 69 66 69 72 72 73 74 75 74 75 77 75
73 73 73 72 73 73 73 73 74 75 76 75 75 75 75 76 75 76 75 76 76 75 76 76 75 76 75 74 74 74 73 72 72 71 70 71 72 72 73 72 71 73 71 70 71 72 72 70 71 70 72 74 70 66 70 74 75 76 76 73 73 73 72
73 73 72 72 73 73 73 73 74 75 74 75 75 74 74 75 75 74 75 75 75 74 74 75 75 76 76 76 75 75 74 74 73 73 72 71 70 70 70 71 71 72 72 74 75 74 73 73 72 71 72 74 74 73 74 73 77 77 77 76 75 74 73
75 75 74 73 74 74 74 73 73 74 74 74 74 73 73 73 75 73 74 74 74 73 74 75 74 75 76 76 75 74 73 73 73 73 72 71 71 71 71 72 73 74 74 76 76 75 75 76 74 72 74 76 69 69 73 74 73 77 78 78 79 79 79
75 75 75 74 74 75 75 74 74 74 74 73 73 73 74 75 75 74 74 73 74 74 74 74 74 74 75 77 75 73 73 73 73 73 73 72 72 73 75 74 74 75 74 76 76 75 75 74 73 72 71 71 70 68 72 76 76 74 75 78 79 78 77
75 75 76 76 75 74 75 74 75 75 74 74 74 74 75 74 74 74 74 74 73 73 74 73 74 74 74 76 75 72 73 73 73 72 72 71 71 72 72 74 74 75 75 77 76 76 77 74 73 73 72 67 68 72 71 75 74 73 72 75 77 77 76
75 75 75 75 75 74 73 74 74 74 75 75 74 74 74 74 74 74 74 74 74 74 74 74 74 75 74 74 74 73 72 74 72 72 72 72 70 71 71 73 74 74 74 75 77 75 77 77 76 75 74 72 69 66 69 69 71 70 75 73 74 76 76
73 73 73 73 73 73 71 73 74 75 74 74 74 74 74 74 74 74 74 74 73 74 73 74 74 74 74 74 73 72 72 73 72 72 72 72 71 72 72 72 73 74 74 74 74 75 75 76 77 77 77 75 74 70 67 66 67 67 71 75 73 73 76
73 73 73 72 72 71 71 72 73 73 74 74 74 74 74 73 73 74 74 73 73 74 73 74 75 74 74 74 73 73 73 73 72 72 72 72 71 72 72 73 74 73 73 74 73 73 74 74 75 76 76 77 77 73 71 67 65 69 68 71 74 73 75
73 73 73 73 73 72 72 72 72 72 73 73 74 73 73 74 74 74 74 74 74 73 74 73 74 74 74 73 73 73 73 74 73 72 72 72 72 72 72 71 73 73 73 72 73 74 74 75 76 77 76 76 75 73 73 71 65 66 71 67 70 74 74
74 74 74 73 73 74 73 71 70 70 71 74 74 74 75 75 74 74 74 74 73 74 74 74 74 74 74 73 74 74 73 73 73 72 73 74 75 73 72 72 72 72 73 75 74 74 74 74 75 77 76 76 75 74 74 73 68 64 69 70 70 72 73
73 75 74 74 74 74 73 71 71 72 73 74 75 75 75 76 76 75 75 75 75 74 73 73 74 74 74 73 73 73 73 74 74 73 73 71 73 73 74 73 72 72 73 73 74 74 75 75 76 76 76 76 75 75 74 71 67 65 67 70 71 72 72
74 75 73 74 74 74 74 73 73 74 73 75 76 76 77 76 76 76 76 76 75 76 75 74 74 74 74 72 71 72 73 73 73 72 72 73 72 73 72 73 73 72 74 73 72 77 77 76 78 78 77 76 76 74 75 73 70 68 64 67 69 73 71
74 73 73 73 74 75 74 74 75 74 74 74 76 77 76 75 76 77 76 75 76 75 75 75 74 74 73 73 73 72 72 72 71 71 71 72 74 73 71 71 72 71 72 71 71 73 73 75 77 76 74 76 74 74 76 76 72 68 66 67 69 70 70
73 73 73 74 74 74 74 74 75 75 75 75 75 75 76 77 76 76 75 76 75 75 75 74 74 75 75 74 74 73 73 72 72 72 72 73 74 73 72 71 71 71 71 70 71 72 73 73 73 74 73 73 72 72 72 73 73 71 69 67 68 73 71
72 71 71 73 73 74 74 75 75 76 75 75 75 75 75 77 76 76 74 76 76 76 76 76 75 74 74 74 74 73 73 73 72 72 72 71 69 72 71 71 72 72 71 70 70 71 73 70 75 73 73 74 73 72 71 72 73 73 70 68 67 70 71
71 70 70 72 73 74 75 75 75 75 76 75 75 75 75 75 76 77 77 78 77 77 77 76 76 75 75 74 73 73 73 72 72 73 72 72 72 72 71 71 71 71 71 69 70 70 71 70 71 71 71 73 74 71 69 70 71 71 71 70 68 66 69
72 72 72 72 73 74 74 74 76 76 76 76 75 74 75 75 75 77 78 77 77 76 76 75 75 74 74 74 74 73 72 72 72 72 72 73 73 73 72 72 71 70 69 69 69 69 68 67 68 67 68 67 71 70 69 70 70 69 69 69 69 69 68
72 72 72 72 72 72 72 73 75 76 76 75 75 76 75 75 75 75 75 76 77 77 75 74 74 73 74 74 73 72 72 71 72 72 71 73 73 73 73 72 72 71 70 69 68 68 67 64 65 64 61 61 66 68 68 68 68 68 68 68 69 69 70
71 72 70 69 69 68 69 71 72 75 75 75 74 76 75 75 74 74 74 74 74 73 73 73 74 73 73 72 72 71 71 72 71 71 71 71 72 72 72 72 72 72 70 65 58 60 62 61 67 66 66 67 67 66 67 68 68 68 69 68 68 69 68
70 71 68 67 66 69 70 71 73 72 73 74 73 74 74 74 75 74 73 73 73 71 71 71 60 50 54 70 73 72 70 70 71 71 70 70 70 71 71 71 70 64 60 57 54 50 50 51 55 64 69 69 67 67 67 66 67 68 67 67 67 67 66
71 70 71 69 67 69 71 71 71 72 72 72 72 73 73 73 73 74 74 73 71 70 70 68 46 46 45 46 64 70 70 70 70 70 70 70 70 69 70 71 70 62 59 56 58 47 46 45 46 48 47 51 59 67 67 64 64 66 65 65 67 67 66
70 70 71 72 71 72 71 71 71 71 70 69 70 71 70 72 72 72 71 72 71 70 70 48 42 43 43 42 48 66 70 70 69 69 70 70 70 70 70 70 69 68 66 66 67 64 55 46 44 44 44 45 48 43 43 59 64 65 64 64 64 64 64
70 70 70 71 71 70 70 70 70 69 68 68 69 68 70 69 70 70 70 70 70 70 68 41 41 40 43 41 41 52 72 71 71 71 71 70 71 70 71 70 70 69 71 59 64 69 69 64 46 42 45 45 43 42 42 39 43 58 65 64 62 61 62
70 70 70 70 70 70 69 69 69 68 68 67 66 66 66 66 67 68 68 69 69 69 66 43 39 39 40 40 40 46 71 71 71 72 72 72 71 71 70 71 71 71 71 68 69 68 69 69 63 59 58 60 62 50 42 42 43 45 56 63 63 61 60
70 69 69 69 69 69 69 69 68 67 67 67 66 65 65 65 66 67 68 67 65 65 59 36 39 38 39 39 39 45 71 69 71 71 71 71 71 70 70 69 69 70 70 70 68 63 68 68 66 63 62 62 63 62 63 62 62 62 62 62 63 61 60
71 71 70 70 69 69 68 68 68 68 68 67 66 64 63 66 65 68 68 67 67 65 59 36 38 38 38 40 38 63 70 70 71 71 71 70 70 71 70 70 70 69 69 68 51 44 53 65 67 64 62 63 63 61 54 44 40 43 52 58 60 59 58
70 70 70 70 70 69 68 68 68 69 66 66 66 65 67 69 71 70 70 70 69 67 65 44 36 37 40 38 46 71 70 71 71 69 69 69 70 67 66 67 69 70 68 65 46 44 46 47 67 64 64 62 61 60 56 51 42 39 39 39 38 37 38
72 71 71 71 70 69 70 70 70 71 68 69 69 71 71 70 71 71 70 70 70 68 66 47 37 39 39 38 48 69 71 71 69 69 67 68 69 66 57 44 55 68 65 61 39 44 43 53 65 64 63 61 60 59 58 57 56 50 38 39 37 37 38
69 70 71 70 70 69 70 70 71 71 71 71 70 71 71 70 70 70 71 69 58 66 67 53 38 40 38 40 53 71 70 71 67 67 68 66 67 67 62 54 43 51 57 49 37 43 41 51 65 64 63 62 62 61 60 59 58 56 56 55 52 50 49
68 68 69 69 69 70 71 71 70 70 71 73 71 71 71 71 69 69 68 68 66 68 67 65 53 38 41 40 41 63 73 70 68 66 68 68 66 65 64 60 50 38 38 38 39 39 40 41 62 64 64 63 62 59 59 58 55 56 55 54 54 54 55
66 67 69 68 68 69 70 70 69 69 69 71 71 70 69 69 69 67 67 67 68 68 68 66 54 38 40 40 40 46 73 69 69 68 68 67 68 65 65 62 58 40 37 38 39 39 41 40 45 62 61 59 56 54 53 57 50 43 55 55 55 55 57
64 65 66 67 67 67 69 70 69 69 70 70 68 67 68 68 68 67 66 64 65 64 58 52 64 41 39 39 42 39 63 69 67 69 67 68 67 66 64 62 58 43 37 38 39 40 40 42 44 57 48 39 38 42 56 58 57 57 57 57 57 57 58
63 64 64 64 65 65 68 68 68 68 68 67 67 66 65 66 66 65 64 64 62 60 61 59 48 56 40 40 39 42 42 59 46 65 67 66 65 64 63 58 49 38 38 38 39 39 40 41 45 47 36 38 40 37 44 59 58 57 57 58 57 56 56
64 63 63 63 64 64 65 66 67 67 68 67 66 65 66 65 66 65 64 65 64 64 64 65 48 46 49 37 40 40 43 46 47 64 67 67 65 63 61 57 48 37 38 38 37 39 39 42 46 36 37 37 37 38 55 57 56 57 55 54 54 55 56

ECMWFFLT1_sfc_temp_045.txt.gz
Temp
76 74 76 76 77 78 77 77 78 78 79 80 79 80 80 79 78 78 77 76 78 79 79 77 76 77 76 77 75 76 76 73 71 70 69 67 65 67 71 68 70 71 70 69 70 67 64 62 65 72 72 71 72 72 73 72 71 69 67 66 66 67 68
77 76 77 77 77 77 76 77 78 79 79 79 80 79 79 79 79 77 77 77 77 78 81 80 78 77 75 74 73 73 73 72 72 70 71 69 68 67 70 69 66 70 68 68 69 66 66 65 65 66 67 71 71 71 72 73 73 72 71 70 69 70 70
77 77 77 76 75 76 75 75 76 76 77 77 77 78 78 79 79 79 78 77 76 78 78 78 77 75 75 74 74 73 73 72 73 71 70 72 71 71 71 71 70 70 67 65 63 65 64 67 65 66 66 66 66 69 71 73 75 76 77 77 75 76 74
76 76 74 74 75 74 74 75 76 76 77 76 76 76 77 77 76 77 77 77 77 77 78 78 77 78 77 75 75 75 74 73 73 71 72 72 72 70 70 69 68 67 65 64 65 62 62 63 63 66 68 70 68 67 72 75 75 76 76 75 74 74 75
76 75 74 73 74 74 74 74 76 76 75 76 75 75 75 76 76 76 76 76 76 76 76 77 77 78 77 77 76 75 74 74 74 72 71 71 72 72 69 68 69 67 66 66 68 67 64 65 65 67 68 72 73 73 75 74 79 77 77 77 77 76 75
76 76 76 75 75 75 75 75 75 75 75 74 75 74 74 76 76 75 75 75 75 75 76 77 76 78 77 76 76 75 74 74 74 73 72 72 72 72 72 74 75 75 73 72 67 68 71 69 69 70 73 74 69 70 74 75 74 78 79 79 80 79 78
76 76 76 76 76 76 76 75 76 75 75 74 74 74 76 76 76 75 75 75 76 76 75 75 75 77 77 78 76 75 74 74 74 73 73 73 73 74 75 75 75 76 75 75 73 74 72 73 70 71 69 70 71 71 72 73 76 74 76 79 79 78 77
77 77 78 77 76 76 76 76 76 76 75 75 75 75 76 75 75 76 75 75 75 75 75 75 76 76 76 77 76 74 74 74 74 73 73 73 72 73 73 75 75 75 76 78 77 76 76 74 72 72 71 67 68 69 69 76 75 74 73 76 79 77 76
77 78 77 77 77 77 76 76 76 76 76 76 75 75 75 76 75 75 76 75 76 76 76 76 76 76 75 75 75 74 74 77 74 74 74 73 72 72 73 75 75 75 76 77 78 77 78 77 75 74 74 73 68 65 69 69 72 72 77 74 76 78 77
76 76 76 76 76 77 76 76 76 76 76 75 75 75 75 76 76 76 75 75 75 75 75 75 76 76 75 75 74 73 73 74 74 74 73 73 73 74 74 74 75 75 75 75 76 76 76 77 78 78 79 75 73 71 67 66 67 69 73 77 73 75 78
75 76 76 76 76 76 76 75 75 75 75 75 76 75 75 75 75 75 75 75 75 75 75 76 76 76 75 75 75 75 75 75 74 74 74 74 73 74 74 74 75 74 75 75 75 75 76 76 77 77 77 78 77 72 72 68 65 70 69 74 76 74 77
75 75 76 76 75 75 74 74 73 75 75 75 75 75 75 75 75 75 75 75 75 75 75 75 76 76 76 74 74 74 75 75 74 73 73 74 74 74 73 73 74 74 75 74 75 75 76 77 78 79 77 77 76 74 73 70 65 68 73 68 72 77 76
75 77 76 75 74 74 75 75 75 74 74 75 75 75 76 76 75 75 76 75 75 75 75 76 76 76 75 75 75 75 75 75 75 74 75 76 77 75 74 73 73 74 75 77 76 76 76 76 77 78 78 76 75 75 74 73 67 65 71 71 72 74 76
72 76 76 75 75 75 74 74 74 74 75 74 75 75 76 76 77 76 77 76 76 75 75 75 76 75 75 75 75 75 76 76 76 75 74 74 76 76 75 75 74 74 75 75 76 76 77 77 77 77 77 77 75 75 75 71 68 66 68 73 73 74 75
75 75 75 74 75 75 75 74 73 74 73 74 75 76 77 76 77 77 77 77 77 77 76 76 76 76 75 74 73 75 75 76 75 75 74 74 74 74 74 74 74 73 75 75 74 79 79 79 80 80 78 77 76 75 76 73 71 68 65 69 71 74 73
74 73 73 74 74 75 74 74 75 73 74 75 76 77 77 77 77 78 78 77 78 77 77 77 76 76 75 74 74 74 74 74 73 73 73 74 76 75 73 73 73 73 74 73 73 74 75 76 78 77 76 77 75 75 77 77 73 69 68 68 71 72 72
74 73 73 74 74 75 74 75 75 75 76 76 76 77 78 78 78 78 77 78 78 77 77 76 76 77 76 76 75 74 75 74 74 74 74 75 76 74 74 72 72 72 73 72 73 73 75 75 75 75 75 75 75 73 73 73 75 71 71 69 70 74 72
72 71 72 73 74 74 75 75 76 77 76 76 78 77 77 79 78 78 76 78 77 77 77 77 76 76 76 76 76 75 75 75 74 74 74 74 72 74 73 73 74 74 73 72 71 73 74 72 76 75 75 76 75 73 73 73 74 74 71 69 69 72 72
70 71 71 72 74 75 75 76 76 77 78 77 77 76 77 77 78 78 78 78 79 79 78 78 78 77 77 76 75 75 75 74 74 74 74 74 74 74 73 73 73 73 73 71 71 72 72 72 73 73 73 72 74 73 71 72 72 72 71 71 70 69 70
69 70 71 72 73 75 76 76 76 77 77 77 76 76 77 77 77 78 78 78 78 78 78 78 78 77 77 76 75 74 73 73 73 73 74 74 74 74 74 74 73 72 72 72 71 71 70 70 69 68 69 68 68 68 69 71 73 72 70 70 70 69 69
70 71 72 74 73 74 73 76 77 77 77 76 76 76 77 76 76 78 77 75 77 78 77 77 77 77 78 76 74 72 73 72 72 72 72 74 74 74 74 74 73 73 73 73 72 71 70 69 69 69 68 69 67 67 68 69 69 69 69 69 68 68 70
69 72 74 73 73 73 72 73 75 77 77 76 76 76 76 76 76 76 78 76 78 77 76 74 76 76 72 74 75 74 74 73 73 73 73 73 73 73 74 74 73 74 72 64 58 60 61 62 69 68 68 68 67 67 68 69 69 69 69 68 68 68 68
71 71 71 71 71 72 71 71 72 71 71 74 75 76 75 75 76 75 75 76 76 74 73 74 58 49 54 69 74 75 73 73 72 72 72 72 71 72 73 72 72 62 58 58 57 51 50 55 57 62 67 68 68 68 67 67 67 68 67 67 67 66 65
67 67 69 70 70 71 70 70 70 69 69 67 64 63 67 73 74 74 72 65 65 66 67 68 45 47 48 44 63 72 72 71 71 69 65 64 67 66 69 73 70 63 62 59 59 47 50 48 50 49 48 48 51 60 65 65 67 67 65 65 67 66 65
72 70 69 70 70 71 71 70 68 66 66 65 64 65 66 70 70 68 67 67 65 64 64 49 45 46 44 44 47 64 70 69 66 62 60 61 62 63 64 68 69 68 69 69 69 64 54 47 46 47 46 47 46 41 44 58 62 64 65 65 64 64 64
72 71 71 71 71 70 69 68 67 66 63 63 65 65 66 67 67 66 66 66 68 64 63 44 43 42 44 42 42 50 69 65 62 60 61 59 60 58 60 64 68 67 70 61 65 69 68 63 47 43 47 46 46 47 44 41 47 59 63 62 63 64 65
72 72 71 71 70 69 68 66 64 64 64 62 62 62 62 63 62 64 64 64 61 61 61 42 42 41 43 40 41 45 68 66 64 64 62 62 64 66 69 69 69 68 68 67 68 69 70 69 64 60 59 61 63 52 44 44 45 47 57 63 63 62 65
72 72 72 71 71 68 66 66 65 64 64 62 63 64 64 66 65 66 65 63 61 60 58 37 40 39 40 39 40 42 65 67 67 68 70 72 73 72 71 71 71 72 70 69 64 60 69 69 68 65 64 64 64 64 64 64 64 64 64 64 65 64 63
73 73 72 72 71 70 68 66 66 68 68 67 68 66 65 68 67 66 64 64 60 61 57 37 39 39 39 39 38 54 68 71 71 72 72 72 72 73 72 71 72 71 70 66 51 45 52 63 68 68 65 64 65 63 55 44 40 44 52 59 61 61 60
72 73 73 73 72 71 70 69 69 71 66 67 68 66 64 66 68 67 67 67 65 66 63 43 37 39 39 39 43 65 70 72 72 71 71 70 71 68 66 67 71 71 68 64 43 45 44 48 67 67 66 65 65 62 59 54 44 40 40 39 39 38 38
73 72 73 73 72 72 72 72 71 71 69 68 67 68 68 67 69 68 67 69 70 68 67 49 37 39 40 39 48 67 72 72 72 71 71 71 69 65 59 47 59 70 65 60 40 43 39 53 65 66 65 64 63 62 59 58 57 51 39 39 38 38 40
72 72 72 73 72 71 71 72 73 72 71 71 70 70 70 69 68 69 70 70 63 67 67 53 37 40 38 41 45 64 72 74 70 70 70 69 69 66 62 53 45 53 57 48 38 41 39 51 63 66 66 64 62 61 61 59 59 57 57 57 55 53 51
70 70 71 71 71 71 73 73 72 72 71 73 72 73 72 71 70 71 72 72 69 69 68 65 52 38 40 40 40 56 70 72 69 68 69 69 67 66 63 60 50 39 38 38 39 39 40 42 61 67 66 65 63 61 62 61 59 60 60 59 59 59 58
67 68 70 70 70 70 72 72 72 71 71 72 73 72 71 71 71 70 71 70 70 70 69 67 58 38 40 40 39 43 67 71 71 69 70 69 69 66 65 62 57 40 38 39 39 39 42 43 47 60 58 57 56 52 55 61 53 48 58 58 58 58 59
67 67 68 68 68 68 70 71 71 71 72 71 70 70 70 70 70 70 70 69 70 69 67 60 66 41 39 40 39 37 58 70 69 71 68 69 69 68 64 61 57 43 38 39 39 40 41 43 45 58 50 41 39 41 58 60 60 58 59 60 60 60 61
66 66 66 67 66 66 68 69 70 70 70 69 69 69 69 69 68 69 68 69 69 69 68 64 54 58 41 38 39 42 39 52 52 65 69 68 68 65 62 56 49 39 39 39 40 40 41 42 47 49 38 42 43 37 45 60 61 60 59 59 59 58 58
67 66 66 66 66 66 66 67 68 69 69 69 68 68 69 68 68 67 67 67 68 69 68 67 53 50 51 36 40 40 42 42 45 58 64 69 68 63 60 56 48 38 39 39 38 39 40 44 48 37 40 39 38 41 56 59 58 59 56 56 56 57 57

ECMWFFLT1_sfc_temp_048.txt.gz
Temp
70 69 71 71 72 72 71 72 72 73 74 75 74 75 74 74 73 72 73 72 73 75 73 71 70 70 71 71 70 71 70 69 67 65 64 64 62 61 64 65 64 65 66 66 65 60 59 57 59 64 66 67 67 67 68 67 66 65 64 64 64 64 63
72 71 71 72 71 72 71 72 72 74 73 73 74 73 74 74 72 73 72 72 71 72 74 73 71 72 70 69 69 68 68 68 67 68 66 65 65 63 63 63 64 63 63 64 65 64 59 59 58 60 60 65 66 65 67 68 68 67 66 66 66 66 64
71 71 71 70 70 72 70 70 71 71 71 71 71 73 72 75 73 73 72 71 71 72 73 72 71 70 69 69 69 68 69 68 68 68 66 66 67 66 66 64 62 62 62 60 61 61 62 61 58 60 62 61 60 62 66 67 68 66 67 67 67 68 65
70 70 68 69 69 70 69 69 70 71 71 70 71 71 71 72 71 71 70 71 72 71 72 73 70 72 70 69 70 69 69 68 67 67 67 67 67 65 66 65 63 63 61 60 58 60 60 60 59 60 63 66 64 61 65 69 69 71 71 69 68 67 66
71 70 69 68 69 69 69 69 69 69 69 70 69 69 69 70 70 69 70 70 70 70 70 70 71 71 70 70 68 68 68 68 68 68 67 66 66 65 65 65 64 64 64 64 64 63 62 62 62 61 63 66 67 67 69 67 72 71 71 71 70 68 67
70 70 70 69 70 69 70 70 69 68 68 68 68 68 69 69 69 69 69 68 68 69 69 70 70 71 69 69 69 68 68 68 67 67 66 66 67 66 66 66 65 66 66 66 66 65 64 64 63 60 67 67 60 64 69 69 66 73 73 72 71 70 70
70 70 70 71 71 70 72 70 70 69 68 67 68 68 69 70 69 69 69 69 69 69 69 69 69 69 69 71 69 67 67 67 67 66 66 66 66 67 68 66 66 66 65 67 67 65 62 61 62 63 63 64 64 64 67 68 71 68 70 72 72 71 70
71 70 70 71 71 70 71 71 71 70 68 69 68 69 70 69 69 69 69 68 69 69 69 69 70 68 68 69 68 67 67 67 67 66 65 65 67 67 66 66 67 66 67 68 68 67 67 65 66 65 63 59 60 60 61 68 67 67 66 68 71 70 68
71 71 71 71 71 71 71 71 70 70 70 69 69 69 69 69 68 68 69 69 69 69 69 69 68 68 67 66 66 66 66 71 66 66 65 65 65 65 65 66 66 66 67 68 70 68 69 68 68 68 65 63 59 57 60 59 62 64 70 66 68 69 68
71 71 70 70 70 72 72 71 70 70 69 69 70 70 69 69 69 68 68 68 68 68 68 69 69 68 67 67 66 65 65 67 66 67 65 65 65 66 65 65 65 65 66 67 67 68 68 68 68 68 69 66 65 61 56 55 57 58 66 69 64 65 69
72 72 71 71 71 71 71 71 70 69 69 70 70 70 69 68 68 69 67 68 69 69 68 68 69 69 67 67 67 66 67 66 65 66 66 66 65 66 66 66 65 65 66 65 67 66 66 66 66 68 66 67 65 61 59 57 56 60 59 64 67 65 67
71 71 71 71 71 71 70 70 69 69 69 69 69 68 68 68 68 68 68 67 68 68 68 68 68 68 68 66 67 66 67 67 65 65 66 66 67 66 65 65 65 65 65 65 65 66 66 65 68 67 66 66 66 64 63 60 55 58 62 58 63 68 67
72 72 71 70 70 70 71 70 70 69 68 69 69 69 69 69 69 68 68 68 68 68 69 69 68 69 68 67 67 69 67 67 67 66 67 68 72 68 65 65 65 66 67 67 66 67 67 66 67 66 67 66 66 66 64 60 57 57 61 61 62 66 68
70 71 70 70 70 70 70 70 69 70 70 69 69 69 69 69 70 69 70 70 70 68 68 68 69 68 67 67 68 69 69 69 68 66 66 66 69 68 67 66 66 67 66 65 65 67 69 68 67 69 68 65 65 66 65 61 58 57 60 62 62 65 66
69 70 69 70 69 70 69 69 69 70 69 69 69 70 70 70 70 70 70 71 70 70 69 69 69 68 68 67 67 69 70 69 66 67 66 66 65 69 66 65 67 65 67 67 65 70 69 69 70 69 68 67 66 66 68 64 60 56 56 61 60 65 64
68 69 69 69 69 70 69 69 70 69 69 69 69 70 70 70 70 70 70 70 70 70 70 70 69 68 67 67 68 68 68 66 65 66 67 66 68 68 65 64 65 67 68 66 66 66 66 68 70 69 66 67 66 65 67 67 63 59 59 59 61 63 63
68 68 68 68 69 69 69 69 70 69 70 69 70 69 70 71 70 70 70 70 70 70 70 69 69 70 70 68 68 67 68 67 68 69 68 69 69 66 65 64 65 66 66 64 65 65 67 66 66 66 66 65 65 65 64 64 66 63 61 59 60 65 63
68 68 68 69 69 69 68 69 69 71 70 70 71 70 71 71 70 71 70 71 71 70 70 70 70 69 69 69 68 68 68 68 68 70 69 68 69 68 66 67 66 66 67 63 63 64 65 64 70 66 65 66 65 65 65 64 64 64 60 60 60 63 63
65 67 68 69 69 69 69 69 70 70 72 71 71 71 71 71 72 72 72 72 72 72 71 70 70 70 70 70 69 68 68 67 68 69 68 69 69 68 66 68 67 66 67 65 64 63 64 66 66 64 64 64 66 64 62 62 63 62 63 62 60 60 63
65 67 69 69 70 70 70 70 70 71 71 71 71 70 71 70 70 71 73 71 71 71 71 71 70 70 71 71 70 69 69 68 68 68 69 69 69 69 69 69 67 67 66 67 64 64 63 63 63 62 61 61 63 62 61 61 62 62 61 61 61 59 59
65 64 64 67 69 70 70 70 70 70 71 70 70 71 70 70 70 72 72 72 71 69 70 69 68 68 69 69 69 69 69 68 68 68 67 68 68 67 67 67 67 68 68 67 66 64 63 61 62 61 61 62 60 60 59 60 60 60 61 60 60 61 59
61 60 61 62 61 61 60 63 68 71 71 70 70 70 71 71 71 70 72 71 70 65 62 61 61 58 61 64 68 68 67 68 66 66 64 63 61 60 59 60 60 59 62 60 55 57 57 59 64 61 61 62 60 59 60 60 60 61 59 60 59 60 59
62 63 63 62 60 61 61 62 63 63 66 66 66 66 68 69 70 71 67 63 61 60 60 62 57 49 46 58 66 68 63 60 59 59 59 60 59 60 59 60 60 59 55 55 52 49 51 53 53 57 57 58 57 59 60 60 58 59 58 57 58 58 57
64 64 63 61 61 62 62 62 60 61 63 63 64 64 64 64 63 63 63 62 59 58 60 61 50 41 42 44 58 64 62 60 61 59 59 59 57 59 59 61 59 57 58 57 53 48 50 52 48 43 45 48 52 55 56 56 56 57 56 57 57 56 54
65 65 65 64 63 64 62 61 61 62 62 63 63 63 64 65 64 65 63 61 60 60 60 56 45 43 42 42 45 56 63 60 59 59 60 59 59 59 59 59 60 60 60 61 61 56 52 47 48 44 42 42 41 41 46 53 54 54 53 53 54 55 56
66 66 66 67 66 64 62 61 63 62 61 63 64 64 64 63 63 63 63 62 61 61 60 51 46 44 42 42 41 50 63 62 60 60 60 59 59 59 58 58 58 60 64 62 63 62 60 55 46 46 45 44 43 45 44 44 48 54 56 54 53 53 54
65 64 65 64 65 64 62 62 61 62 63 62 62 61 61 61 61 61 62 60 59 59 59 52 46 44 42 41 40 46 61 63 61 62 61 61 61 60 59 59 58 59 62 61 62 62 63 60 56 53 54 55 55 46 42 42 44 46 52 55 54 53 54
64 64 64 64 63 64 64 62 63 63 63 61 61 60 60 60 60 60 61 61 59 59 61 48 43 42 41 41 40 43 57 62 63 63 63 62 62 62 62 61 60 62 62 60 55 54 61 60 58 58 56 56 57 55 53 52 51 53 55 56 55 57 54
67 68 67 66 65 63 63 64 63 62 61 60 61 61 60 60 60 59 59 60 59 59 56 41 40 40 40 40 39 49 57 61 62 63 63 63 64 64 64 64 63 62 60 56 47 41 45 57 60 59 58 57 54 49 47 44 42 43 47 49 49 50 48
68 68 68 69 68 66 64 63 63 63 61 61 60 60 60 60 61 60 59 58 58 59 58 42 38 39 39 39 42 54 59 62 63 63 63 63 61 58 56 57 62 60 57 51 41 41 41 50 58 59 59 57 55 52 48 46 41 40 40 40 40 39 39
67 67 67 68 67 66 66 65 63 63 61 61 62 61 60 59 60 60 58 59 60 59 60 48 37 39 39 38 44 57 62 63 63 63 62 61 59 56 52 51 60 59 55 50 39 40 43 53 57 57 59 57 55 52 49 50 50 45 40 40 40 41 43
66 65 65 65 65 65 65 66 67 64 63 63 62 61 60 59 60 61 61 61 59 61 60 51 38 39 38 39 41 50 59 63 62 62 62 60 59 56 53 47 48 51 51 44 39 40 42 51 57 56 58 58 55 54 51 51 50 47 48 48 46 45 44
63 63 64 64 64 65 65 65 65 66 65 67 65 64 63 63 63 63 63 63 62 63 60 56 44 38 39 39 39 47 57 59 61 62 62 60 58 56 54 51 45 39 39 40 41 41 42 47 54 54 54 52 52 51 53 52 50 51 50 50 51 49 49
62 63 64 63 63 63 64 64 64 64 65 66 65 64 64 63 63 63 64 64 63 63 62 59 52 37 38 38 38 40 55 59 61 62 62 61 59 56 55 52 48 40 39 40 41 41 43 44 47 52 51 50 48 46 49 51 48 48 51 51 50 50 51
63 63 63 63 61 61 63 64 64 64 64 64 63 63 64 63 63 62 63 63 62 61 60 58 58 42 38 38 38 37 51 59 56 60 61 63 61 58 54 51 48 41 39 40 40 41 42 43 44 49 45 41 40 44 50 50 51 49 49 50 49 49 50
62 63 62 62 61 61 61 62 62 63 62 62 62 61 61 62 61 61 61 62 62 62 61 59 52 51 39 39 38 38 39 46 42 55 61 60 58 55 53 48 44 40 40 40 40 41 42 43 44 44 39 39 38 38 42 50 50 52 50 50 49 49 48
62 62 62 61 61 60 60 60 61 62 62 62 61 61 61 62 61 60 60 59 61 62 62 62 52 50 44 37 38 40 41 40 39 54 56 59 55 53 49 48 43 39 39 40 40 41 42 43 43 39 41 38 39 44 48 49 49 50 48 48 49 47 49